Location: New Town
(33.2710°N, 90.7534°W)
Time: 13:41:17
(UTC+00:00)

Explorer 11/Cluster Stage 4 - Pass Details

Date: 17 May 2021
Orbit: 467 x 1257 km, 28.8° (Epoch: 14 June)

Event Time Altitude Azimuth Distance (km) Brightness Sun altitude
Rises 02:58:44 0° 264° (W) 4,075 10.8 -22.0°
Reaches altitude 10° 03:01:34 10° 262° (W) 3,167 10.1 -22.4°
Maximum altitude 03:09:36 64° 183° (S) 1,367 7.5 -23.6°
Enters shadow 03:12:26 42° 121° (ESE) 1,697 7.7 -24.0°
Drops below altitude 10° 03:17:33 10° 104° (ESE) 3,137 - -24.7°
Sets 03:20:21 0° 101° (E) 4,034 - -25.1°
